Theta_e
300 294 292 294 296 296 295 295 296 300 303 302 302 303 306 310 311 312 313 315 316 317 321 323 324 326 328 331 338 342 342 350 342 336 338 341 341 345 346 348 350 349 349 348
295 291 296 297 295 294 294 293 294 299 301 301 301 301 306 308 309 311 312 314 315 317 318 320 322 325 327 332 337 343 344 347 343 338 343 342 344 345 347 347 349 349 348 348
291 293 297 294 293 291 292 291 292 294 299 301 300 298 302 307 309 311 312 313 314 315 315 318 319 323 325 329 336 338 342 343 344 344 344 347 348 346 341 343 345 346 347 345
293 296 293 293 292 293 288 294 293 293 294 290 300 290 299 303 305 307 309 311 313 314 316 317 318 320 324 325 328 335 340 339 340 346 349 351 343 339 341 345 344 342 344 345
291 293 293 292 292 294 291 295 293 294 292 293 294 291 297 303 301 305 308 310 312 313 315 315 317 319 321 323 324 331 335 337 342 346 349 346 347 344 346 346 342 343 345 346
295 299 297 295 297 296 296 293 293 293 292 286 292 292 293 297 301 304 308 309 311 312 313 315 318 319 320 322 324 327 332 340 344 347 348 349 349 348 345 346 342 343 345 347
293 294 297 298 293 296 293 289 283 282 283 283 293 291 294 301 303 304 305 307 310 313 314 315 317 318 321 323 327 334 339 343 346 346 347 349 350 350 350 348 346 345 343 344
286 284 292 294 294 291 290 289 283 277 281 284 291 287 293 302 305 306 307 309 311 313 317 319 321 321 320 322 331 338 341 344 346 347 348 350 351 349 349 350 347 344 343 341
286 286 294 296 298 296 291 286 293 285 287 285 289 293 298 302 303 305 306 307 312 316 320 325 326 327 327 331 337 341 344 345 346 348 348 350 350 350 347 349 347 341 344 343
291 284 292 293 295 296 293 295 286 287 279 279 287 289 290 297 299 302 305 307 310 315 323 326 327 331 333 336 340 344 345 346 346 347 347 346 347 347 347 345 342 343 344 343
293 289 288 293 290 288 291 289 290 289 288 281 283 289 300 301 303 304 305 308 310 318 326 328 330 330 333 341 343 345 345 345 345 345 345 345 344 343 342 342 343 343 343 342
295 291 285 288 294 295 293 289 288 285 284 288 286 289 303 304 305 305 306 307 310 318 326 325 327 331 338 340 342 343 344 343 344 344 342 341 341 342 342 341 342 342 339 337
295 289 283 284 291 294 290 290 292 292 292 286 284 289 304 304 303 305 305 307 309 311 323 325 327 331 336 339 340 341 341 341 340 339 339 339 340 340 340 340 339 338 336 336
295 291 285 282 286 290 287 290 291 291 286 287 288 291 297 300 301 304 305 308 308 310 318 325 326 330 335 338 338 339 338 338 337 337 337 337 337 338 338 338 337 336 336 336
292 287 289 290 291 291 289 289 290 289 290 287 290 291 296 300 301 304 306 306 306 308 314 325 325 328 331 334 336 336 335 335 335 333 333 334 336 337 337 336 336 335 336 335
294 288 290 288 291 291 288 290 291 290 291 291 292 291 299 300 301 301 303 305 306 309 312 325 325 327 330 331 334 334 333 333 332 331 332 334 335 335 335 335 334 335 335 335
290 288 287 284 289 289 285 289 291 291 293 292 289 295 300 299 300 301 303 305 307 310 313 326 326 330 331 333 334 333 333 331 330 331 333 333 334 333 332 332 332 333 335 337
288 289 289 285 287 278 289 295 296 294 295 297 297 299 301 301 303 304 305 306 310 312 315 327 330 332 332 334 334 334 330 328 330 331 332 333 332 331 331 331 331 334 336 336
290 288 285 282 282 286 289 291 291 291 291 297 297 301 303 304 303 303 307 309 313 316 322 328 333 333 333 334 334 332 327 329 329 330 331 332 331 331 329 328 332 334 334 334
291 290 287 285 280 277 289 295 296 293 286 300 302 303 303 303 295 300 310 320 322 326 328 331 333 335 334 334 334 328 328 329 329 329 330 331 332 331 330 332 333 334 335 334
288 286 282 283 282 286 293 294 294 284 289 296 299 300 301 303 305 310 314 318 321 326 329 333 333 333 334 334 332 326 328 329 330 331 332 331 333 333 333 334 334 334 334 333
286 285 287 287 283 282 295 291 288 294 296 295 298 299 303 309 310 311 313 317 320 324 330 333 333 333 334 333 328 325 329 332 331 332 331 332 333 332 332 334 334 334 334 333
287 289 286 286 288 296 297 292 294 295 293 296 299 304 306 308 310 312 314 317 320 327 331 332 332 332 332 330 327 328 331 333 331 331 332 332 333 333 334 334 334 332 334 331
294 297 289 288 294 295 297 298 298 299 298 301 306 309 309 310 312 314 317 321 325 328 330 333 332 331 329 328 328 331 332 333 333 331 332 333 333 332 334 333 335 334 334 331
295 296 290 290 293 295 296 297 298 300 302 305 309 311 312 313 315 316 318 323 326 329 331 331 332 329 328 327 328 332 333 332 332 332 333 333 333 333 333 334 331 333 336 328
299 295 290 289 295 295 295 300 301 300 301 305 306 308 312 314 315 320 321 325 328 329 332 332 330 328 326 326 327 331 331 332 333 333 332 331 331 332 332 332 330 298 299 300
Wind_Speed
11 12 14 15 18 24 25 29 24 20 20 26 25 31 32 27 30 30 26 22 22 22 21 19 17 16 15 15 15 15 14 11 9 9 9 9 10 9 9 8 10 12 12 15
12 17 17 17 16 20 21 24 29 23 13 19 23 31 30 27 28 28 27 25 24 22 22 20 20 17 17 16 15 15 14 11 10 9 8 7 7 8 7 6 9 12 13 13
16 17 16 10 13 19 22 25 24 27 21 20 21 28 28 26 23 22 22 23 24 25 23 22 22 21 19 18 15 14 12 12 12 12 8 7 6 5 6 10 9 9 9 10
15 10 10 15 20 18 21 20 25 24 23 24 20 22 23 24 28 29 28 26 26 24 25 24 23 23 20 19 17 15 13 12 11 13 11 12 10 8 7 9 9 8 11 13
19 20 18 16 18 20 21 19 21 21 23 24 29 21 20 18 22 22 20 22 23 22 24 23 21 20 18 16 17 15 12 13 12 12 12 11 10 7 9 9 14 11 10 12
19 16 18 20 19 23 20 22 20 22 20 22 24 22 19 20 24 22 19 20 20 21 20 14 15 15 16 13 12 11 13 12 11 12 13 13 11 9 10 13 12 11 10 10
18 5 11 16 23 21 18 17 13 16 20 21 23 21 18 6 8 4 6 7 11 11 13 13 12 12 13 12 11 9 10 10 11 13 13 12 11 11 14 15 12 14 11 10
9 9 10 4 11 18 19 19 14 20 16 20 28 27 21 22 25 20 17 9 8 9 10 11 13 9 11 10 9 9 11 11 13 13 13 12 13 10 11 11 12 10 10 10
12 9 8 8 13 16 19 19 19 24 21 18 17 26 27 21 13 8 8 4 6 11 12 13 11 7 8 8 9 11 12 13 14 14 13 14 12 13 12 13 10 9 9 9
9 12 4 1 8 15 16 15 13 13 10 18 15 20 15 25 23 17 4 5 10 13 13 10 5 3 5 6 10 12 14 15 15 15 14 13 14 14 13 12 11 11 10 10
15 7 11 12 7 5 11 13 15 7 15 14 11 14 19 9 13 9 6 10 14 14 12 9 7 1 6 11 13 14 15 17 16 15 15 14 14 14 13 12 11 11 10 10
12 8 13 15 9 8 5 10 6 9 12 16 14 5 12 18 13 6 9 13 15 15 13 6 2 4 11 13 15 15 15 16 16 15 15 15 14 13 13 12 11 10 10 9
8 5 9 6 5 5 7 13 13 15 15 13 16 7 14 10 3 9 13 15 16 17 13 6 3 5 11 13 14 15 16 16 17 16 16 15 14 13 12 11 11 10 10 10
7 11 14 14 19 13 11 11 12 14 12 16 18 24 10 13 13 15 14 16 17 17 11 5 1 4 11 13 14 15 16 16 16 16 15 14 12 12 11 11 11 11 10 10
6 11 17 18 20 18 19 19 19 19 19 21 19 22 18 19 17 18 18 20 18 16 14 6 4 4 8 13 14 15 16 15 15 15 14 13 12 12 11 11 11 10 9 8
6 8 14 17 16 18 21 21 21 22 22 22 23 27 24 25 23 20 21 18 16 14 13 5 7 7 10 13 15 15 15 14 14 14 14 13 12 11 11 11 11 10 9 7
5 7 9 14 14 12 15 17 19 18 20 18 21 23 20 23 21 18 20 17 16 15 13 4 10 11 11 14 15 15 15 14 14 14 13 12 11 11 10 11 12 10 8 7
6 11 9 8 9 11 12 3 11 10 13 17 19 22 24 22 19 16 16 16 16 16 14 6 13 12 12 15 16 15 14 14 14 13 13 11 10 11 11 12 11 9 8 8
11 5 4 5 9 16 19 5 6 9 17 19 25 20 21 16 16 16 13 16 18 15 11 7 12 15 15 16 16 15 14 14 14 13 12 10 10 12 11 10 10 9 8 7
1 8 5 5 6 6 3 5 5 7 16 13 11 15 15 10 12 9 5 8 15 9 8 10 13 16 18 17 16 16 15 14 13 12 11 10 10 11 11 10 10 9 7 7
4 3 11 14 8 7 2 9 7 7 6 17 15 15 17 12 8 11 14 14 14 12 6 12 15 16 17 17 17 16 15 14 11 11 11 10 11 11 11 10 8 8 8 8
4 4 2 4 6 3 8 9 6 10 19 16 17 15 16 18 14 13 14 15 14 12 10 16 15 16 17 17 16 16 15 13 12 11 12 12 11 9 9 10 8 8 8 8
2 3 4 4 4 13 12 8 15 16 17 21 17 17 15 17 15 14 12 15 14 8 11 14 15 17 16 17 15 16 15 13 12 13 13 12 11 10 9 9 8 7 7 6
6 7 3 4 4 14 14 9 11 13 17 21 21 18 16 15 12 14 12 11 8 6 11 14 16 17 17 16 16 16 15 13 13 13 12 11 10 9 8 7 6 6 6 5
7 6 4 8 13 14 1 12 12 15 16 9 7 5 7 8 12 9 11 7 6 6 11 13 16 16 17 16 16 16 15 13 13 13 11 10 9 7 8 6 3 3 4 2
3 8 3 4 12 10 7 14 13 16 16 10 8 5 4 6 7 11 5 3 3 7 12 14 17 17 17 17 16 16 15 14 14 13 11 8 9 8 7 7 8 14 13 12
Wind_Direction
265 263 254 262 259 258 267 270 270 263 271 254 244 244 251 245 251 257 258 254 258 265 272 277 275 272 260 259 252 251 251 244 226 220 225 220 218 209 207 203 193 190 195 194
266 249 266 279 280 274 265 261 258 259 277 271 242 251 251 247 250 253 255 255 264 267 267 269 267 264 262 260 254 250 245 239 223 220 228 241 220 204 195 186 175 195 193 188
279 289 298 269 258 253 253 255 258 255 253 236 253 254 253 252 255 256 260 259 261 265 268 268 268 266 263 258 250 246 240 226 221 230 210 201 174 141 161 187 181 184 171 168
287 298 291 268 262 257 267 259 254 258 251 245 230 259 248 241 244 244 249 251 256 261 262 264 264 263 260 261 256 252 239 235 221 208 205 199 189 174 182 172 163 155 164 172
271 287 292 270 269 263 262 262 256 247 251 250 241 254 261 256 255 257 257 255 255 262 258 259 263 265 266 260 255 245 241 236 225 200 209 188 207 170 162 162 135 155 165 169
269 273 257 274 282 266 260 256 246 248 250 238 237 239 252 252 256 254 254 254 248 251 260 262 271 270 251 247 240 235 226 218 197 187 191 191 183 161 150 135 151 153 160 161
312 343 351 322 256 245 235 242 239 225 224 243 237 234 239 268 109 335 231 288 267 254 263 268 270 264 232 227 221 215 203 186 173 173 173 179 163 163 149 156 153 150 156 160
346 318 2 324 287 252 222 234 237 243 235 230 225 236 226 234 263 272 250 257 279 279 296 286 285 261 252 220 202 199 179 163 162 156 154 151 151 153 147 148 137 147 158 155
312 306 275 346 300 279 226 248 263 269 286 279 231 209 248 255 231 234 212 279 335 325 322 303 283 257 235 188 172 186 161 151 151 141 138 141 141 142 122 127 143 146 132 128
312 299 326 298 300 256 255 227 248 238 265 258 239 197 219 208 216 252 109 3 348 344 342 320 297 254 208 163 174 153 150 145 137 135 134 133 129 124 129 135 133 137 128 136
308 271 288 285 232 257 273 239 208 214 290 285 244 206 205 201 101 102 55 10 5 357 3 346 2 141 161 171 139 140 136 135 134 131 125 127 125 129 133 133 134 134 136 144
331 292 286 290 278 224 169 247 346 270 232 248 275 325 104 116 132 82 16 8 359 2 23 359 23 149 169 137 135 134 136 132 128 128 124 124 129 131 134 134 131 138 138 147
356 269 300 285 206 201 216 244 243 243 274 258 272 244 157 184 179 11 2 353 342 347 38 24 23 178 144 138 135 135 135 130 131 128 128 129 134 134 135 132 135 138 144 144
320 266 258 277 295 321 295 273 254 270 263 264 260 264 221 225 305 320 340 329 332 335 21 58 321 233 149 141 139 137 132 133 133 132 130 132 135 136 134 133 141 144 146 149
251 260 272 271 276 275 275 270 265 257 260 261 264 269 268 275 301 316 317 302 310 320 350 105 182 253 159 144 139 134 135 134 132 132 132 132 134 135 135 140 147 147 150 146
230 261 274 275 264 265 268 266 260 257 254 254 259 264 268 274 276 280 287 297 305 317 330 115 177 213 164 153 145 139 137 136 137 135 133 136 138 141 141 145 146 152 146 146
244 265 277 267 274 297 278 266 264 259 254 255 254 261 270 269 268 272 278 292 297 303 317 159 176 190 170 160 143 147 141 143 143 138 138 139 141 139 147 157 154 156 144 151
234 232 250 275 301 257 252 351 318 307 298 289 270 261 262 266 274 270 269 280 293 293 296 176 179 179 172 157 153 145 149 149 146 145 143 145 152 146 147 155 159 137 151 152
223 236 262 241 229 280 296 301 310 312 290 292 276 262 272 259 264 261 261 275 278 272 273 186 175 165 166 160 152 153 154 153 156 149 150 153 149 154 159 160 143 149 151 144
185 213 255 243 250 261 47 161 3 322 274 26 330 315 301 250 241 256 252 355 314 301 275 157 177 164 161 159 156 158 153 162 159 150 152 148 152 155 162 151 158 154 163 161
298 209 224 246 257 261 25 9 322 227 355 322 331 321 314 284 273 303 319 303 304 298 260 152 171 161 161 157 161 162 160 163 149 144 140 144 146 153 152 153 152 159 180 139
289 300 297 259 239 260 9 316 250 338 314 298 303 297 284 297 280 279 279 289 286 279 185 171 165 159 158 161 163 161 165 159 146 147 142 139 144 154 154 157 161 166 161 164
286 256 290 250 302 288 295 247 272 269 271 280 283 277 269 266 273 279 279 283 270 255 178 170 161 154 159 163 165 161 162 153 156 143 139 145 148 140 145 157 170 171 167 179
294 312 264 305 274 293 311 293 293 283 266 273 263 258 266 270 273 271 266 254 246 216 181 168 159 156 161 164 164 160 157 159 157 145 148 148 146 143 150 149 167 181 184 183
267 350 274 258 273 306 258 312 329 312 312 342 308 295 273 266 265 250 261 234 249 212 181 165 158 162 160 163 163 159 158 163 151 151 151 158 134 157 143 118 61 154 141 93
316 330 267 285 301 312 315 336 336 329 335 4 1 359 316 285 275 246 176 136 191 172 161 166 159 157 155 162 161 158 166 164 154 155 162 159 145 148 147 147 131 55 48 42